Location: Bégole
(43.1574°N, 0.3291°E)
Time: 13:41:15
(UTC+00:00)

NOSS 2-1 (E) - Pass Details

Date: 28 January 2023
Orbit: 400 x 1778 km, 63.3° (Epoch: 09 March)

Event Time Altitude Azimuth Distance (km) Brightness Sun altitude
Rises 18:04:09 0° 329° (NNW) 2,743 7.1 -11.0°
Reaches altitude 10° 18:06:09 10° 337° (NNW) 1,981 6.3 -11.3°
Maximum altitude 18:10:27 45° 50° (NE) 1,041 4.3 -12.1°
Drops below altitude 10° 18:16:25 10° 122° (ESE) 2,761 6.5 -13.1°
Sets 18:19:39 0° 128° (SE) 3,962 7.3 -13.7°
